Flag for India Weather past 2 weeks in Faridkot, Punjab, India

Now
100 °F

Scattered clouds.


Feels Like: 114 °F
Forecast: 92 / 109 °F
Wind: 6 mph from West

Location: Lahore Airport

Current Time: Jul 4, 2015 at 12:39:44 PM

Latest Report: Jul 4, 2015 at 12:25 PM


Visibility: 4 mi

Pressure: 29.50 "Hg

Humidity: 45%

Dew point: 75 °F

Location of FaridkotLocation

Historic Weather in Faridkot — Graph

°F

Faridkot temperature yesterday

Maximum temperature yesterday: 100 °F (at 1:25 PM)
Minimum temperature yesterday: 81 °F (at 4:25 AM)
Average temperature yesterday: 91 °F

Past Weeks' High & Low Weather Summary

 TemperatureHumidityPressure
High109 °F (Jun 19, 2:25 PM)100% (Jun 23, 11:55 AM)29.74 "Hg (Jun 23, 11:55 AM)
Low73 °F (Jun 25, 5:30 AM)26% (Jun 28, 4:30 PM)29.36 "Hg (Jun 22, 5:25 PM)
Average90 °F57%29.52 "Hg
* Reported Jun 19 10:30 AM — Jul 4 11:25 AM, Faridkot, Weather by CustomWeather, © 2015

Note: Actual official high and low records may vary slightly from our data, if they occured in-between our weather recording intervals... More about our weather records

Advertising

Faridkot weather history for previous 24 hours

 ConditionsComfort  
Time TempWeatherWind HumidityBarometerVisibility
11:25 AM
Sat, Jul 4
99 °FPassing clouds.3 mph47%29.50 "Hg4 mi
10:55 AM99 °FPassing clouds.3 mph50%29.50 "Hg4 mi
10:25 AM97 °FClear.3 mph53%29.50 "Hg4 mi
9:55 AM95 °FClear.3 mph56%29.50 "Hg4 mi
9:25 AM91 °FClear.5 mph63%29.50 "Hg4 mi
8:55 AM90 °FClear.7 mph67%29.50 "Hg3 mi
8:30 AM90 °FClear.7 mph67%29.50 "Hg3 mi
8:00 AM88 °FClear.7 mph75%29.50 "Hg2 mi
7:30 AM86 °FClear.6 mph79%29.50 "Hg2 mi
5:30 AM84 °FClear.3 mph84%29.50 "Hg2 mi
5:00 AM84 °FClear.3 mph84%29.50 "Hg2 mi
4:30 AM86 °FClear.6 mph79%29.50 "Hg2 mi
4:00 AM86 °FClear.5 mph79%29.50 "Hg2 mi
3:30 AM86 °FClear.6 mph79%29.50 "Hg2 mi
2:55 AM88 °FClear.7 mph75%29.50 "Hg2 mi
2:25 AM88 °FClear.7 mph75%29.53 "Hg2 mi
1:55 AM88 °FPassing clouds.7 mph75%29.53 "Hg2 mi
1:25 AM88 °FPassing clouds.8 mph75%29.53 "Hg2 mi
12:55 AM88 °FPassing clouds.10 mph75%29.53 "Hg2 mi
12:25 AM90 °FPassing clouds.10 mph71%29.53 "Hg2 mi
11:55 PM
Fri, Jul 3
90 °FPassing clouds.5 mph71%29.53 "Hg2 mi
11:25 PM91 °FPassing clouds.No wind67%29.53 "Hg2 mi
10:55 PM91 °FPassing clouds.No wind67%29.53 "Hg2 mi
10:25 PM91 °FSmoke.5 mph67%29.53 "Hg2 mi
9:55 PM91 °FPassing clouds.3 mph63%29.53 "Hg2 mi
9:25 PM91 °FPassing clouds.3 mph63%29.53 "Hg2 mi
8:55 PM93 °FPassing clouds.6 mph63%29.53 "Hg2 mi
8:25 PM93 °FPassing clouds.6 mph63%29.53 "Hg2 mi
7:55 PM93 °FPassing clouds.6 mph59%29.53 "Hg2 mi
7:25 PM95 °FScattered clouds.6 mph56%29.50 "Hg2 mi
6:55 PM95 °FScattered clouds.6 mph56%29.50 "Hg2 mi
6:25 PM97 °FScattered clouds.6 mph53%29.50 "Hg2 mi
5:55 PM97 °FScattered clouds.7 mph53%29.50 "Hg2 mi
5:25 PM97 °FScattered clouds.6 mph53%29.50 "Hg2 mi
4:55 PM99 °FScattered clouds.5 mph47%29.50 "Hg2 mi
4:25 PM99 °FScattered clouds.7 mph47%29.53 "Hg2 mi
3:55 PM99 °FScattered clouds.6 mph47%29.53 "Hg2 mi
3:25 PM99 °FScattered clouds.5 mph47%29.53 "Hg2 mi
3:00 PM99 °FScattered clouds.5 mph50%29.56 "Hg2 mi
2:25 PM99 °FBroken clouds.7 mph50%29.56 "Hg2 mi
1:55 PM99 °FBroken clouds.9 mph47%29.56 "Hg2 mi
1:25 PM100 °FBroken clouds.9 mph45%29.59 "Hg2 mi
12:55 PM99 °FBroken clouds.No wind47%29.59 "Hg2 mi
12:25 PM97 °FScattered clouds.7 mph50%29.59 "Hg3 mi
Weather by CustomWeather, © 2015

See weather overviewHow to use our weather pages